Hlavní strana
METAR-TAF:

METAR-TAF

Letiště :

Pickens, Jižní Karolína, Spojené státy americké

zeměpisná šířka: 34-48-36N, zeměpisná délka: 082-42-10W, výška: 309 m

Aktuální stav počasí

Zpráva byla vytvořena před 21 minutami, v 01:15 UTC
Bezvětří
Teplota 4°C
Vlhkost vzduchu 100%
Tlak 1020 hPa
Viditelnost: 8.0 km
Zataženo ve výšce 300 ft
kouřmo

METAR: KLQK 190115Z AUTO 00000KT 5SM BR OVC003 04/04 A3012 RMK AO2 T00370037

Čas: 20:36 (01:36 UTC)


TAF: chybějící

Stav a předpovědi počasí z více než 4 000 letišť (zprávy METAR a TAF).

Červené a žluté tečky na mapě představují dostupné meteorologické stanice.

Když kurzor umístíte na tečku, zobrazí se název stanice.

Pak kliknutím zobrazíte stav a předpověď počasí.

Chcete-li změnit mapu, kliknutím na zelené tlačítko se znaménkem +mapu přiblížíte, kliknutím na zelené tlačítko se znaménkem – mapu oddálíte a kliknutím na zelené šipky přejdete na sousední mapy.


METAR-TAF: